Wind_Speed
24 23 21 20 20 19 18 16 14 12 12 14 14 12 9 7 5 3 1 0 1 2 1 1 1 1 1 1 1 3 5 6 7 7 7 6 6 6 7 8 9 9 9 10 10 10 9 9 9 11 11 12 14 14 13 13 11 11 11 9 6 6 5 4 2 1 6 9 8 7 7 8 8 7 6 6 6 5 3 3 2 3 4 5 6
24 22 20 20 21 20 18 16 13 13 14 15 14 12 9 7 5 3 2 1 1 1 1 1 1 1 1 3 3 3 6 7 6 6 6 6 6 6 7 8 8 8 10 10 10 9 8 8 7 9 9 10 13 14 13 13 12 11 12 11 9 9 8 8 7 4 4 6 8 8 8 8 9 9 8 7 6 5 4 4 4 5 7 8 8
23 23 23 22 22 20 17 15 14 14 14 15 14 11 9 6 5 4 3 2 2 2 2 2 2 2 2 4 4 4 6 7 7 6 6 5 5 6 7 8 7 7 8 8 8 8 7 6 6 7 8 8 10 12 13 13 12 12 13 12 11 11 11 11 11 9 6 5 8 9 8 8 10 10 9 9 8 7 6 6 6 7 9 10 11
24 25 25 24 22 21 18 16 15 15 15 14 13 11 9 7 6 5 4 4 3 4 4 4 4 4 3 4 5 5 5 7 7 7 6 6 5 6 7 8 7 7 7 6 7 7 6 6 6 6 8 8 9 11 12 13 13 13 13 13 13 12 13 13 14 13 10 7 8 10 9 8 10 11 11 11 11 10 10 10 9 10 11 12 13
24 26 26 24 22 21 19 17 15 15 15 14 12 11 10 8 7 6 6 5 5 5 6 6 5 5 5 6 6 6 5 6 7 7 8 7 6 6 7 9 10 9 9 8 8 8 9 9 9 8 9 9 9 10 12 14 14 13 13 12 12 12 14 15 16 16 15 11 9 9 10 10 11 12 13 13 13 13 13 14 13 13 14 14 14
23 25 26 25 24 22 20 18 16 15 14 14 12 11 10 9 8 7 7 6 6 6 7 6 5 5 5 6 7 7 6 5 6 7 8 8 7 7 8 9 11 12 11 10 10 10 11 11 11 10 10 10 10 10 11 13 13 12 12 11 12 12 13 14 16 17 17 14 11 11 11 11 11 13 13 13 14 15 15 16 16 16 16 16 16
23 24 26 26 26 24 22 19 17 15 14 13 11 10 10 10 9 8 8 6 6 6 6 5 4 4 3 4 5 7 7 6 5 6 7 8 8 8 8 8 10 12 11 10 9 9 9 11 12 12 11 11 11 11 11 11 11 12 12 11 11 11 12 13 15 16 16 15 14 13 12 12 13 14 13 13 14 16 16 17 17 17 18 18 17
24 25 27 28 27 26 25 21 17 15 14 13 11 11 11 11 10 9 8 7 6 6 6 6 6 5 4 3 3 4 6 6 6 6 6 7 8 9 9 9 9 10 10 9 9 8 8 10 12 13 13 13 13 12 12 12 13 13 12 11 11 10 11 11 12 14 15 15 16 15 14 14 15 15 15 16 16 17 17 17 18 18 19 19 19
27 28 29 28 27 27 26 22 19 16 14 13 13 13 13 13 12 10 9 8 7 7 7 7 7 5 3 2 1 1 2 3 5 5 6 6 7 8 8 9 10 10 10 9 10 10 9 9 11 12 13 14 14 14 13 13 12 12 12 12 12 11 11 11 12 13 15 16 16 15 15 16 16 16 17 18 18 18 18 19 19 20 20 20 20
28 29 28 26 26 27 27 27 24 19 16 14 15 16 16 15 14 12 10 9 9 9 8 8 7 5 4 3 2 1 2 2 1 2 4 6 7 7 7 8 10 11 11 11 11 12 11 11 11 12 13 13 13 14 14 13 13 13 12 12 12 12 13 14 15 16 17 17 17 17 17 18 18 18 18 19 19 19 20 21 22 22 22 22 22
21 25 25 23 23 23 24 27 24 19 18 17 17 17 17 16 16 14 12 11 11 11 9 8 7 6 5 4 3 1 1 1 2 1 1 3 5 7 7 8 10 11 12 12 12 13 13 13 12 13 13 14 15 15 15 16 16 15 15 15 14 15 15 16 17 18 18 19 18 18 19 19 19 19 20 20 21 22 22 23 24 24 24 24 24
15 21 23 21 19 18 20 24 22 19 19 20 19 18 18 17 17 15 14 13 13 12 10 9 8 8 7 6 5 4 3 2 2 1 1 2 3 5 6 8 10 11 12 12 12 13 13 14 14 14 15 16 16 17 17 17 18 18 18 18 17 18 18 19 19 20 20 20 20 20 21 21 20 20 20 21 22 23 24 25 26 26 26 25 24
14 20 20 19 18 18 20 23 22 20 22 23 21 18 18 17 17 16 15 15 15 14 12 11 10 9 8 8 7 7 7 7 7 7 7 7 6 6 6 6 8 9 10 12 12 13 13 14 15 16 17 18 18 19 19 19 19 19 19 19 19 20 20 20 21 21 22 22 22 23 23 22 21 20 20 21 22 23 24 26 27 27 26 25 24
14 17 18 16 16 16 17 18 19 20 21 21 20 18 17 17 16 16 16 16 16 15 14 13 12 11 10 10 10 10 10 10 10 11 11 11 11 11 10 10 10 10 10 11 12 12 13 13 14 15 16 17 18 19 19 20 20 21 21 21 21 22 22 22 22 22 22 23 24 24 23 22 21 20 20 21 22 23 24 25 25 26 26 25 25
15 15 15 13 12 12 13 14 17 18 19 19 18 17 16 15 15 15 15 16 16 15 15 15 15 14 13 12 13 13 13 13 13 13 14 14 14 14 14 15 15 15 15 15 15 15 15 16 16 16 17 18 18 19 20 20 21 22 23 23 24 24 24 25 25 25 25 25 25 24 23 22 22 22 22 23 23 23 25 25 24 24 24 25 25
16 15 14 12 10 10 11 13 16 16 16 16 16 15 15 14 14 13 13 14 15 14 15 15 16 16 16 15 15 15 15 15 15 15 16 16 16 17 17 18 18 19 19 20 21 21 21 21 21 21 21 21 21 22 23 24 25 25 26 26 26 27 27 28 28 28 28 29 30 27 25 24 24 24 25 26 25 24 26 27 26 26 26 26 25
16 15 15 14 11 10 10 10 11 10 10 12 13 13 14 13 12 11 11 11 12 13 14 14 15 16 16 16 17 17 17 17 17 18 18 18 19 20 20 21 21 22 22 23 24 25 25 26 27 27 27 26 26 26 28 29 29 30 30 30 30 31 31 32 32 32 32 32 31 29 28 27 28 27 28 28 27 26 27 29 29 28 27 26 24
17 16 16 15 13 11 11 10 8 7 7 10 11 13 14 12 10 11 11 10 10 11 11 12 13 14 14 15 16 17 18 18 19 20 21 22 22 23 24 24 25 25 26 26 27 27 28 28 29 30 31 30 30 31 32 33 33 34 33 33 34 34 34 35 35 34 32 32 31 31 32 33 33 32 30 29 28 26 27 27 27 26 25 24 22
14 13 12 11 10 9 8 7 6 5 5 7 7 9 10 7 6 8 10 9 8 8 9 10 12 13 13 15 16 17 18 19 20 21 22 23 24 24 25 27 27 28 29 29 30 30 30 31 31 32 33 32 32 34 34 34 35 35 34 35 37 37 37 37 37 35 35 36 37 36 34 33 33 31 29 27 26 26 25 24 23 24 23 22 21
13 12 10 9 8 6 5 3 1 1 2 3 3 4 6 5 4 5 8 8 7 7 7 7 9 10 12 14 16 17 18 18 18 19 21 22 23 24 25 26 27 28 29 30 31 32 32 32 32 32 32 33 34 35 35 34 34 32 31 32 35 36 35 35 34 34 33 34 36 35 33 32 31 29 27 26 25 25 25 25 23 22 21 20 19
12 11 10 9 8 7 6 4 2 3 3 4 4 6 7 9 9 9 10 10 11 11 10 10 11 12 13 14 16 17 18 19 19 19 20 22 23 24 25 26 26 27 28 29 30 31 31 31 31 30 29 30 31 32 33 33 32 29 29 29 29 28 29 29 29 28 28 29 32 33 31 30 29 28 27 26 25 25 26 24 22 20 19 18 17
11 11 10 9 9 8 7 7 6 5 6 6 5 6 8 9 10 11 12 12 13 15 15 16 17 18 19 20 20 20 20 21 22 22 23 24 25 25 26 27 28 29 30 30 31 32 32 32 31 30 30 29 28 29 30 31 31 30 29 27 23 22 24 24 23 23 25 27 29 29 29 29 29 29 28 28 27 25 24 22 20 19 17 16 16
12 12 11 11 10 9 9 9 9 9 9 8 8 8 8 9 10 11 12 13 13 14 15 17 18 20 21 23 23 24 24 24 25 25 26 26 28 29 30 31 32 34 35 36 36 37 37 37 36 36 35 34 32 31 30 31 32 31 30 26 22 21 23 24 22 23 25 27 27 26 27 28 29 29 29 28 27 24 22 20 19 17 16 16 15
13 12 11 10 10 9 9 10 10 11 11 11 10 10 10 10 11 12 12 13 14 15 15 16 18 18 20 21 22 22 24 24 25 26 27 27 28 30 31 33 34 35 37 38 39 40 41 42 42 42 41 41 39 37 36 35 34 34 33 30 26 24 25 26 26 26 26 26 26 26 27 28 30 30 29 28 25 23 21 19 18 16 15 15 14
13 12 11 10 10 9 9 9 9 10 11 11 12 12 12 11 12 12 13 14 14 15 16 17 18 19 20 20 21 21 21 22 22 23 25 26 26 27 29 31 32 34 35 36 37 39 40 41 42 42 43 43 43 42 41 39 37 36 35 34 32 29 29 28 27 26 26 26 26 27 27 29 30 30 28 26 24 22 20 18 17 16 15 14 14
13 12 12 12 12 11 11 11 11 11 11 12 13 13 13 13 13 13 14 14 15 15 16 16 17 18 19 20 20 20 20 21 21 22 22 24 24 25 26 28 29 31 32 33 34 36 37 37 38 38 39 39 40 41 41 40 38 37 36 36 36 35 32 29 27 26 27 27 26 26 27 30 31 30 28 26 23 21 19 17 16 15 14 14 14
12 12 12 12 13 13 13 13 13 13 13 13 13 13 14 14 14 14 14 14 15 15 16 16 17 18 19 20 20 21 21 21 21 21 21 21 21 21 22 23 24 26 28 29 31 33 34 35 35 35 35 35 35 36 37 38 38 37 36 36 36 36 33 31 30 28 27 27 27 27 29 32 33 31 29 25 22 20 18 16 15 14 13 13 13
14 14 14 14 14 15 15 14 14 14 13 13 13 13 13 13 12 12 12 13 13 14 15 15 16 17 19 20 20 21 20 20 19 19 19 19 19 18 18 18 18 20 21 23 26 29 31 32 33 33 32 32 31 31 31 32 34 35 35 34 33 32 31 30 30 28 27 28 30 32 33 34 32 30 27 24 21 19 17 15 14 13 12 12 13
15 16 16 16 16 17 17 16 15 14 14 14 13 12 12 11 11 10 12 13 13 14 14 15 15 16 18 18 19 20 20 19 19 18 19 18 18 18 18 17 17 18 18 19 22 24 27 29 30 29 28 28 28 27 27 28 29 31 33 33 32 31 30 29 29 29 29 31 33 34 34 33 30 27 24 21 19 17 16 14 13 12 12 12 12
16 17 17 17 17 18 18 18 17 15 15 15 12 9 8 10 10 10 10 11 12 13 13 13 14 15 16 17 18 20 21 20 19 18 18 18 17 17 17 17 17 18 18 19 20 22 23 25 26 25 24 24 25 25 24 24 24 25 26 26 26 25 25 26 27 28 30 33 35 34 33 32 29 26 23 19 17 16 15 14 13 12 11 11 11
16 16 18 18 19 19 19 19 18 16 15 15 12 7 5 5 7 8 8 8 9 9 10 11 12 14 16 17 18 19 19 19 19 18 18 18 18 17 17 16 16 17 17 19 21 21 22 23 23 22 21 22 23 23 23 22 21 19 19 19 18 19 21 23 24 26 30 32 33 32 32 31 28 24 20 18 17 16 14 13 12 11 10 9 9
15 16 17 18 19 20 20 19 18 17 15 13 11 8 6 4 3 4 5 7 8 8 9 10 12 13 14 16 17 18 17 17 17 17 17 17 17 16 16 15 15 15 16 19 21 21 21 22 22 21 21 22 21 20 19 19 19 18 18 18 17 18 20 21 22 25 29 31 32 33 32 29 24 21 19 18 16 14 13 12 11 10 9 8 7
14 15 16 17 18 20 20 19 18 17 14 11 9 8 9 8 6 5 4 4 4 5 7 9 11 12 13 15 16 16 16 16 16 17 16 17 17 16 15 15 15 15 16 18 20 21 21 22 22 21 22 22 20 17 14 14 15 17 18 19 19 19 21 22 23 25 29 32 34 33 29 24 21 20 18 16 14 11 11 10 9 8 7 6 6
14 15 16 17 18 20 21 20 18 15 13 10 8 8 9 10 11 10 8 6 4 3 4 7 10 12 13 14 14 15 15 15 16 17 17 17 18 18 17 15 14 15 16 17 19 21 21 22 22 21 22 23 22 18 14 12 12 15 18 20 22 23 24 24 25 27 29 29 28 27 25 23 21 18 15 13 11 10 10 9 7 6 5 5 5
13 15 16 18 19 20 21 20 17 14 11 8 7 7 8 10 12 12 12 11 10 9 8 9 11 12 13 13 13 13 14 15 16 16 15 16 16 16 16 15 15 15 16 18 19 21 22 22 22 21 21 23 23 20 16 12 11 13 16 18 21 20 19 18 20 22 22 21 20 21 20 19 17 14 12 10 10 9 8 7 5 4 4 4 4
13 14 15 17 19 20 21 19 16 12 10 8 6 6 8 10 11 12 12 13 13 13 13 13 13 12 12 13 13 13 13 13 13 12 10 10 12 13 14 14 14 14 15 15 16 18 20 21 20 20 19 19 18 18 16 14 12 12 15 17 18 17 15 17 19 19 20 20 19 18 16 15 14 13 11 9 8 6 5 4 4 4 4 4 4
12 13 14 16 18 19 19 18 15 12 10 8 5 6 8 10 11 11 12 13 13 14 15 15 14 12 12 12 13 13 11 9 8 8 8 9 10 11 11 11 11 12 12 12 12 13 14 15 15 15 14 13 12 12 12 12 11 11 14 16 18 18 16 18 20 20 20 20 18 17 15 14 12 10 8 7 5 4 3 4 4 4 4 3 3
11 12 13 16 17 18 17 15 14 13 11 8 6 7 8 9 10 11 13 14 15 16 16 16 16 15 14 14 13 13 12 8 5 6 8 10 10 11 12 14 14 13 11 10 10 10 11 11 11 11 11 11 10 8 8 9 10 11 14 17 19 19 18 21 22 22 21 20 18 17 15 13 11 9 7 6 4 3 3 4 4 4 3 2 3
10 11 13 15 16 16 15 13 12 12 11 9 7 6 7 8 10 12 14 16 17 18 18 18 17 16 15 14 13 12 13 12 8 7 8 10 11 12 15 18 19 20 18 15 11 9 9 9 10 10 10 10 10 9 9 11 11 10 13 17 20 23 24 25 24 21 19 18 16 15 13 12 10 8 7 5 3 2 2 2 3 4 3 3 3
9 10 12 14 15 14 13 11 10 9 10 9 8 7 6 8 10 12 15 17 18 19 19 18 16 14 13 13 12 11 12 13 12 11 10 11 12 13 15 16 19 21 23 23 20 15 11 10 9 10 10 9 9 10 10 10 8 8 12 19 26 28 26 23 20 18 16 14 14 14 12 11 9 8 6 4 2 1 1 2 3 3 4 3 2
9 9 11 13 14 12 10 9 7 7 7 8 8 8 8 9 11 13 15 17 18 19 16 13 12 12 12 12 12 11 11 11 11 11 9 9 10 12 14 15 18 20 21 22 23 21 16 13 11 9 6 5 5 6 5 5 6 10 19 27 29 25 21 18 16 14 14 13 13 12 11 9 8 6 4 3 2 1 1 1 3 6 5 4 3
9 9 10 12 13 11 9 7 6 5 5 6 6 7 8 9 12 14 15 17 18 16 11 9 10 11 12 12 13 12 11 9 9 9 8 8 10 12 13 15 17 19 20 21 23 22 18 15 13 9 4 1 0 2 4 7 13 20 26 27 22 19 17 16 14 14 13 13 11 10 9 8 7 5 3 2 2 2 2 4 7 7 5 3 4
8 9 10 12 12 11 8 6 5 4 3 3 4 5 7 9 11 12 14 17 17 12 8 8 10 11 11 12 13 12 11 10 9 9 9 9 10 12 13 15 16 18 20 22 22 21 18 15 11 9 6 4 4 4 8 14 21 24 23 19 16 15 16 16 16 14 12 11 9 8 7 6 5 3 3 2 2 3 5 7 7 5 4 4 6
8 8 9 11 12 11 9 6 4 3 3 3 4 5 6 8 9 10 12 15 15 10 7 9 11 11 11 11 11 11 11 11 11 11 10 10 10 11 13 14 15 17 19 20 19 18 16 13 10 9 9 9 9 10 12 16 17 16 14 13 14 16 16 17 16 13 10 8 8 7 6 5 3 2 3 3 4 5 6 6 5 4 4 4 5
7 7 9 11 13 12 10 7 6 4 3 4 5 5 6 6 8 9 11 13 13 9 7 9 12 13 12 12 11 11 12 12 11 10 10 10 10 11 11 12 13 14 16 16 14 13 12 10 9 10 11 12 13 13 13 13 13 12 14 16 17 17 17 15 13 11 8 7 5 4 4 3 2 2 3 4 5 6 6 5 5 4 3 3 4
6 6 8 11 13 12 11 9 6 5 5 6 5 3 3 4 5 8 9 10 10 8 6 10 14 15 14 14 13 13 13 13 12 11 11 11 11 12 12 13 13 12 12 13 12 11 11 11 12 13 15 16 17 17 17 17 17 17 18 17 16 15 14 12 9 7 6 4 3 3 3 2 2 3 4 5 6 7 6 4 4 3 3 3 4
5 5 7 11 13 12 10 10 8 7 6 5 2 1 1 2 4 6 7 7 7 7 8 12 14 15 15 15 15 15 16 16 15 15 16 17 17 17 17 16 14 12 13 15 16 16 16 16 15 15 16 16 17 17 16 16 16 16 15 14 13 12 9 7 6 4 4 3 2 2 2 2 3 5 6 7 7 7 5 3 3 4 4 4 3
4 5 7 10 12 12 10 9 10 10 8 4 2 3 2 1 3 5 5 4 5 7 9 12 13 13 14 15 16 16 16 16 16 17 18 18 18 18 17 17 16 14 15 16 17 17 17 17 16 15 15 15 14 14 14 13 12 11 10 10 9 7 6 5 4 3 2 1 2 2 3 4 5 7 8 9 9 8 7 6 7 6 5 3 3
4 5 6 9 11 11 9 8 10 10 7 5 4 4 3 1 2 2 2 3 4 6 8 10 10 11 13 14 13 13 13 14 15 16 16 16 15 15 14 14 14 14 14 14 15 16 16 15 14 14 13 12 12 11 10 9 8 8 8 8 7 7 6 5 4 3 2 3 3 4 6 7 7 9 10 10 9 8 7 8 9 8 7 6 5
4 5 6 8 10 11 9 7 7 8 6 4 4 5 4 2 2 3 3 3 3 4 7 8 9 10 11 11 11 11 11 11 12 13 13 13 13 12 12 12 13 13 13 13 13 14 14 14 13 12 11 11 10 9 8 8 8 8 8 8 8 8 7 6 5 4 4 5 6 8 8 8 9 9 9 9 8 7 7 7 7 7 8 8 7
4 5 7 7 8 11 10 7 5 5 5 4 3 4 4 3 2 3 3 2 2 4 6 8 8 9 10 10 11 11 10 10 10 11 11 11 11 11 11 11 11 11 11 12 12 13 13 13 13 12 12 12 11 10 10 9 9 9 9 9 9 9 8 8 8 8 8 9 9 9 9 8 8 8 7 6 6 5 5 5 4 4 5 6 7
Wind_Direction
202 198 193 193 197 201 203 200 194 193 193 188 185 184 184 184 190 203 191 149 341 345 25 42 337 333 310 249 214 157 166 165 163 171 178 180 180 184 181 173 168 168 170 169 160 150 151 160 172 181 184 186 187 188 189 189 189 197 206 216 231 234 229 226 231 169 177 184 187 191 198 199 199 200 197 191 191 198 207 224 253 275 288 301 306
200 197 195 194 196 198 199 199 197 196 194 190 187 186 185 186 197 218 239 265 278 287 327 326 274 280 233 229 234 174 160 161 162 166 169 169 164 166 171 167 164 166 171 171 167 161 155 157 170 181 185 191 194 195 197 197 199 206 213 224 238 242 239 239 236 226 217 215 209 208 213 210 209 211 206 195 192 198 212 232 254 266 271 280 285
199 196 194 193 194 195 196 199 200 200 197 195 192 188 187 191 208 236 257 264 260 262 274 263 239 239 221 220 222 183 160 160 163 165 164 164 161 161 168 169 167 171 176 177 180 184 182 180 182 183 188 199 203 204 207 209 212 216 221 230 240 242 242 243 241 236 240 243 231 229 229 219 212 212 207 201 202 208 219 233 248 258 263 268 274
201 197 195 193 194 196 197 197 201 203 201 199 196 192 193 200 215 241 260 266 269 271 266 249 233 232 230 225 219 197 174 168 168 170 168 168 173 177 180 183 184 188 195 199 204 211 217 221 218 204 200 207 211 210 214 217 221 225 229 236 242 243 242 244 245 242 242 250 246 240 237 223 212 210 210 211 217 223 228 236 245 255 260 264 270
204 202 199 196 195 197 199 201 204 206 204 202 199 198 202 210 222 240 255 261 269 270 259 245 238 236 236 232 221 209 198 184 176 178 179 179 184 189 195 201 202 205 208 215 226 234 239 242 239 225 216 216 214 214 217 218 220 223 229 238 245 247 246 245 246 246 245 250 255 246 237 225 213 212 215 218 225 232 237 243 249 254 259 263 268
206 206 204 198 195 196 199 202 203 206 206 205 202 203 211 221 231 243 247 246 254 258 250 242 238 232 228 226 218 212 209 201 189 187 189 194 198 202 207 210 211 214 216 219 228 238 242 242 236 227 225 226 221 217 215 214 218 226 235 244 249 250 247 242 242 247 247 249 254 247 239 233 224 222 225 227 231 236 242 247 251 255 259 263 267
208 209 208 202 197 197 198 198 198 202 208 210 208 210 219 228 236 242 241 241 244 245 239 226 203 180 177 191 206 213 215 214 209 204 204 206 210 215 220 219 215 215 219 223 229 235 235 230 225 224 226 228 226 226 228 232 241 247 248 250 251 250 246 238 235 238 239 242 246 244 238 237 234 235 238 239 240 243 245 248 252 256 261 265 268
212 213 214 210 201 198 197 194 192 199 210 216 216 218 226 232 234 233 232 235 236 229 219 198 172 153 136 138 186 211 217 222 220 215 214 217 220 224 227 226 217 213 215 220 226 230 225 218 218 223 229 232 233 238 246 256 262 261 258 258 258 253 248 243 237 235 237 242 246 243 238 237 238 239 241 244 249 253 254 256 257 260 264 267 268
211 212 212 208 201 199 201 200 198 205 216 221 221 225 230 231 229 225 223 227 224 212 203 192 177 166 157 150 167 206 208 215 215 213 220 228 231 231 232 227 216 209 211 215 220 224 224 220 220 224 230 235 239 244 249 255 260 263 266 268 269 264 258 253 248 245 247 250 252 250 246 247 249 251 253 258 263 264 261 260 261 262 265 266 265
200 199 200 198 195 198 205 209 210 213 219 223 226 230 231 230 227 221 218 222 218 200 192 195 193 189 186 182 181 117 82 84 134 222 239 243 239 234 232 229 220 213 213 215 218 222 226 231 233 235 239 242 246 251 255 257 260 263 265 267 267 266 263 260 259 259 259 259 259 257 255 257 261 264 268 272 272 269 264 261 261 262 262 263 263
186 188 192 194 194 195 201 207 212 215 219 224 229 231 232 231 225 220 220 222 213 198 191 197 203 208 212 209 201 179 113 83 72 54 277 254 250 245 240 237 232 227 225 224 223 226 230 237 243 248 252 255 258 262 265 267 268 268 268 267 266 266 265 264 264 264 263 262 260 258 258 262 266 268 270 270 270 270 269 267 265 264 264 264 263
176 182 188 192 194 196 200 206 211 216 221 228 234 235 235 231 222 220 223 218 207 201 200 204 210 215 216 211 211 213 216 227 233 234 246 245 250 254 252 248 245 245 246 246 245 244 244 247 251 255 258 261 263 266 269 271 273 272 272 273 273 272 271 269 267 265 263 262 260 260 262 265 269 270 271 270 269 269 270 268 267 267 268 268 265
173 177 182 188 193 196 202 207 211 215 218 225 233 235 232 226 219 219 219 211 205 206 208 211 216 218 216 212 215 220 226 232 233 234 236 236 237 241 245 248 249 251 255 258 259 259 258 259 261 263 265 266 266 269 272 274 274 273 272 273 275 274 273 271 268 265 263 261 261 263 266 267 269 273 277 276 273 270 267 266 266 267 267 267 264
169 175 179 182 186 193 203 208 209 209 209 213 218 220 218 217 217 217 214 211 212 214 216 218 220 221 221 221 225 230 235 237 238 239 240 240 241 242 243 246 247 248 253 258 260 262 264 266 268 268 269 269 270 272 274 275 274 273 273 274 275 275 273 271 269 267 265 263 263 264 266 267 270 274 275 273 271 271 271 269 269 268 266 262 258
147 159 165 163 166 175 184 195 200 199 198 201 204 204 205 209 212 213 214 216 219 220 223 227 228 228 228 230 234 238 241 243 245 247 248 249 250 250 250 250 250 250 251 254 257 260 262 265 266 267 267 268 270 272 275 277 278 277 277 277 277 278 277 275 274 273 272 270 269 267 266 269 273 274 273 273 274 275 274 270 266 263 260 255 252
126 133 144 148 156 157 157 177 191 187 185 194 196 191 193 199 203 205 209 216 222 225 228 232 234 234 234 235 239 242 245 247 250 251 253 256 259 259 259 258 258 257 256 256 257 258 258 260 262 264 266 267 269 272 275 277 278 279 279 279 281 281 280 278 276 275 276 276 274 270 268 270 273 276 281 282 280 279 275 265 256 254 253 249 248
110 113 124 134 145 142 139 161 176 166 169 188 192 188 190 196 201 203 209 217 225 230 232 234 237 238 236 237 240 244 247 249 251 254 257 259 261 263 264 265 265 265 265 264 264 263 262 262 263 264 265 266 269 271 274 276 277 278 279 280 281 281 280 279 276 274 273 270 268 268 269 270 273 278 285 286 284 282 276 265 256 253 250 246 248
97 101 106 111 116 118 120 130 133 128 149 173 181 187 193 197 199 206 214 219 224 230 234 237 241 243 243 243 245 249 253 254 256 258 260 262 263 265 266 266 267 268 268 268 267 267 268 267 267 267 267 267 268 269 271 273 274 275 276 277 278 278 278 278 275 272 268 264 266 273 277 275 276 280 284 286 284 279 271 261 254 249 245 248 256
78 83 88 89 92 95 99 111 122 130 151 162 169 183 195 196 192 202 213 216 217 223 229 237 244 247 250 251 253 256 258 261 262 262 263 265 266 267 268 268 268 268 268 268 267 267 268 269 270 271 271 271 270 269 270 270 271 272 273 273 274 275 276 278 277 276 276 274 277 283 284 280 278 280 281 281 277 270 260 250 244 243 247 255 262
53 55 58 58 59 59 61 77 113 216 218 211 219 233 243 255 257 234 228 229 235 239 239 246 253 256 256 256 256 256 258 261 263 264 265 266 268 270 270 270 270 268 268 268 268 268 269 269 270 270 270 271 270 269 267 267 269 272 273 272 273 276 277 279 279 280 281 279 279 281 282 280 278 278 276 273 268 261 253 245 244 249 255 258 260
39 36 33 32 30 26 24 23 355 318 297 277 273 274 272 275 279 273 263 261 264 266 267 268 269 269 269 266 263 262 261 263 264 266 266 267 268 269 269 270 270 269 269 269 269 270 269 269 269 268 266 266 266 266 264 262 264 268 270 271 274 277 279 280 279 278 277 275 275 275 275 274 272 271 269 266 259 253 248 246 247 251 251 252 255
24 19 14 10 6 1 357 353 344 333 322 313 305 296 288 285 285 282 278 276 275 273 272 272 272 273 273 272 272 273 272 270 271 272 272 273 273 274 274 275 276 276 275 274 273 273 273 272 271 270 269 267 266 265 264 262 261 262 264 266 270 275 278 280 278 274 272 273 273 272 269 267 267 266 263 259 252 247 243 242 243 244 244 249 254
10 6 3 359 354 349 344 340 338 335 331 327 321 312 303 298 295 291 287 284 282 280 278 275 273 273 272 271 273 275 275 274 274 274 274 274 275 276 276 277 277 278 278 277 276 275 274 274 273 273 272 271 269 267 265 264 263 262 262 262 263 267 272 274 271 268 269 270 269 266 264 263 261 259 257 253 247 240 237 236 237 240 245 251 255
9 6 4 3 360 354 350 346 341 337 336 333 330 327 321 312 306 302 298 295 292 290 288 286 283 281 279 277 277 278 277 276 275 274 273 272 272 273 274 274 274 274 274 274 274 273 272 271 271 271 271 271 271 270 268 266 265 265 265 264 262 262 264 266 266 267 267 265 263 262 260 258 256 253 251 246 239 234 233 234 237 241 247 252 258
12 12 12 13 12 8 3 358 351 345 341 337 334 332 328 323 317 311 307 303 301 298 296 294 293 291 290 288 286 284 282 280 277 275 274 272 271 270 270 271 272 272 271 271 271 271 271 270 269 268 267 267 267 267 267 266 265 263 263 263 262 259 258 259 261 263 263 262 262 260 257 253 249 246 241 236 231 230 232 234 237 242 247 254 262
17 17 16 14 10 7 2 356 352 348 343 337 334 329 325 322 318 315 312 309 306 304 302 300 298 296 294 292 291 289 287 285 283 281 278 276 274 271 269 268 268 269 270 271 271 271 270 270 270 270 268 267 266 265 265 265 263 260 258 259 259 258 256 254 253 255 259 264 264 259 253 247 240 233 228 226 226 228 230 234 238 242 249 258 268
25 23 20 16 9 4 359 353 348 344 339 336 332 326 321 319 317 316 314 311 309 307 305 303 301 298 296 295 294 293 292 291 291 291 289 288 286 283 279 276 272 269 269 269 270 271 270 271 272 272 272 272 270 268 267 265 264 261 258 255 255 256 255 252 251 252 257 261 258 251 243 236 228 221 217 217 219 222 226 232 238 244 254 265 275
29 26 23 19 13 7 1 355 349 344 339 337 333 327 322 320 321 321 317 314 313 311 308 306 303 301 300 300 300 300 300 302 304 304 302 302 300 298 294 290 285 280 277 274 272 270 269 270 270 271 273 274 274 272 271 268 267 265 261 256 253 252 252 251 251 251 251 252 249 241 231 222 216 212 210 210 212 217 225 232 239 248 260 272 280
30 29 26 21 15 10 5 359 354 350 348 346 343 339 334 330 331 331 325 321 319 315 312 311 310 307 308 309 309 309 311 315 318 316 313 311 309 305 303 299 294 290 290 288 282 274 269 266 266 269 272 274 276 276 274 271 269 266 263 259 255 252 249 248 249 251 249 247 243 234 222 213 209 207 207 207 211 218 227 234 241 252 265 276 281
29 29 26 21 16 12 8 4 360 357 354 352 354 357 350 340 337 335 329 325 322 318 316 315 314 312 312 313 314 315 319 325 328 325 321 318 314 311 307 303 299 296 295 291 286 280 274 269 266 269 273 276 278 278 276 276 275 270 264 260 256 251 248 248 251 252 250 245 238 225 212 205 205 205 206 211 218 222 227 235 245 256 267 272 274
25 23 20 16 13 10 7 5 3 1 358 356 360 9 15 358 344 339 335 329 324 320 317 315 313 313 313 314 318 321 325 328 330 327 323 319 315 312 309 305 302 298 292 285 280 281 283 281 275 273 274 276 276 276 275 275 275 272 268 265 263 258 253 251 251 251 249 240 227 213 203 201 203 205 209 215 220 223 228 238 249 258 263 264 267
22 19 15 12 9 7 4 2 360 358 359 1 5 8 12 15 11 360 353 340 326 317 314 312 313 316 318 320 322 326 328 329 329 328 326 322 317 314 311 310 308 300 290 284 283 285 289 289 284 278 275 275 274 273 272 271 270 270 270 270 273 272 265 257 254 252 245 230 212 201 198 200 201 203 207 212 216 221 229 239 246 250 253 258 267
17 14 10 7 4 2 360 358 356 355 358 3 9 8 4 3 8 21 32 20 341 321 321 324 326 327 326 323 322 324 328 329 328 327 325 322 320 319 317 314 310 302 292 287 287 289 291 292 289 284 279 277 275 275 276 274 270 269 268 266 267 269 265 259 252 243 228 213 203 198 195 193 194 196 199 204 212 222 230 233 236 239 247 261 277
11 9 4 2 359 356 355 355 353 353 356 1 6 7 5 5 8 15 29 47 57 46 8 348 343 340 333 326 322 323 325 324 323 323 323 322 321 321 321 318 312 304 297 291 288 289 289 289 289 288 286 283 279 277 279 281 276 273 271 266 261 259 254 245 233 219 207 198 194 189 184 182 187 192 194 199 207 216 221 224 227 234 249 270 280
5 3 0 358 356 354 354 353 350 350 355 3 7 8 9 12 16 20 24 26 29 30 21 6 357 354 349 343 338 333 329 324 321 321 322 322 321 320 320 319 313 306 299 293 288 286 285 283 283 283 284 286 284 276 270 272 276 279 277 268 258 250 238 220 205 196 188 181 177 176 178 181 184 185 186 190 195 202 210 218 229 244 258 268 268
1 359 357 356 356 353 352 352 354 358 2 8 12 16 16 16 19 24 23 19 15 13 9 5 1 356 352 351 348 341 334 327 324 323 323 325 327 326 321 317 314 311 308 304 299 294 290 287 284 281 280 286 288 279 266 261 267 277 278 266 249 233 211 191 183 179 176 174 173 176 179 180 177 176 177 179 183 193 211 231 247 255 253 247 240
358 355 354 354 354 353 352 356 5 15 15 12 18 26 24 21 23 22 15 9 5 2 358 357 355 350 346 347 349 347 340 330 325 325 323 325 336 344 346 340 332 323 317 313 311 310 307 301 293 285 278 277 283 281 269 259 258 271 274 258 238 222 202 184 177 174 172 170 170 169 169 170 170 170 170 171 175 192 224 248 251 246 242 235 218
355 353 354 354 353 352 355 3 15 23 21 18 24 33 30 26 21 12 3 357 354 352 350 349 348 347 344 343 345 346 344 335 310 295 304 318 340 6 22 20 9 356 338 317 301 301 306 303 292 282 273 263 258 260 261 259 260 268 265 245 224 206 185 172 167 167 166 165 163 161 162 164 164 163 162 167 180 209 241 251 248 237 222 195 189
352 351 353 353 351 352 359 10 20 25 26 26 28 33 28 19 9 360 353 350 347 345 346 345 344 342 340 338 338 340 342 341 330 317 323 340 359 21 31 26 21 19 15 3 343 315 300 295 289 283 279 268 250 238 242 251 257 265 257 231 203 180 168 165 164 165 167 167 163 158 154 154 156 158 162 171 187 221 250 253 239 218 187 166 177
351 350 352 352 351 353 2 13 18 22 28 29 30 30 22 8 359 354 351 349 346 344 344 344 342 340 338 336 334 332 334 340 345 349 357 5 10 21 28 23 17 18 17 12 6 354 335 320 307 290 279 274 263 250 242 241 246 249 227 199 179 168 166 169 170 170 168 163 154 147 146 150 156 160 164 170 177 210 263 244 206 168 138 116 87
349 348 349 352 351 352 1 12 13 16 24 27 27 26 18 5 358 354 351 350 348 346 347 349 353 353 350 346 342 336 335 343 349 352 2 11 12 15 18 15 11 12 11 7 5 1 352 343 335 315 287 274 271 253 229 213 212 201 186 176 172 170 171 170 166 159 151 142 138 140 144 149 154 156 159 163 162 175 221 195 127 107 92 71 55
345 344 345 350 352 351 356 4 4 5 17 22 17 11 2 354 351 352 352 352 352 353 1 16 18 13 7 0 355 351 349 351 355 360 8 14 13 11 7 2 5 9 9 5 5 4 359 354 352 348 345 358 228 191 174 172 175 175 173 172 173 173 166 152 138 130 128 129 132 138 143 145 147 148 146 147 154 153 143 128 117 112 105 85 73
340 338 340 349 352 346 343 349 355 352 353 356 359 358 351 344 345 349 352 353 355 2 27 44 37 30 23 13 9 10 12 13 20 25 20 11 8 8 2 358 1 7 7 6 9 10 7 4 6 13 30 62 93 129 158 166 168 170 172 172 167 156 144 132 124 123 127 133 137 136 135 135 137 136 136 137 138 135 131 129 127 123 114 100 92
335 334 339 351 353 343 333 329 329 330 323 310 315 330 335 336 343 349 349 351 356 10 42 51 46 43 38 29 28 35 38 36 37 35 28 19 12 5 358 356 2 7 9 12 16 17 15 19 34 50 65 90 111 129 148 158 163 166 165 152 136 126 121 119 119 119 120 127 131 129 129 133 134 133 133 132 130 127 121 113 105 97 93 94 93
327 332 344 354 352 343 335 326 311 299 290 283 289 306 315 320 337 349 350 352 359 14 49 58 51 46 43 42 46 49 47 44 41 36 30 24 17 9 6 11 17 17 16 21 25 24 24 39 67 82 90 101 109 114 122 127 126 125 124 119 115 112 111 111 111 105 99 101 108 112 120 129 139 142 131 124 125 124 111 97 99 107 110 106 97
317 328 347 355 352 346 344 341 329 306 286 277 280 305 316 308 330 352 358 360 4 17 55 65 56 49 47 52 57 56 51 48 48 49 50 49 44 41 43 44 39 32 35 46 56 61 64 76 89 96 99 102 103 105 108 110 111 113 113 110 107 106 106 104 103 96 82 72 75 90 108 124 141 139 124 117 127 132 124 116 124 125 109 107 110
307 324 343 352 352 350 351 357 360 351 329 302 268 208 236 283 327 350 355 356 0 20 54 61 54 50 51 55 57 56 52 52 58 62 64 62 59 56 56 56 52 52 62 73 79 81 82 85 88 91 93 97 100 103 106 108 109 110 108 103 101 99 96 92 88 70 46 43 68 97 117 127 130 127 117 113 119 125 119 107 112 107 96 97 103
296 318 334 345 350 351 354 3 10 8 5 19 104 144 164 288 339 344 350 3 18 39 55 56 52 51 53 53 53 53 51 53 59 62 60 58 57 56 57 59 61 63 70 76 80 81 81 81 82 83 87 92 96 100 102 102 101 100 97 95 94 89 80 73 65 52 50 91 130 137 134 130 124 120 113 105 103 101 91 81 83 90 93 93 84
283 308 324 339 348 350 351 359 8 14 27 62 106 134 142 91 353 358 37 53 54 61 62 57 54 56 54 50 50 52 50 49 54 58 59 61 62 62 63 65 66 66 68 70 72 74 75 76 77 79 82 86 90 94 96 93 88 86 88 91 90 84 78 75 75 87 116 137 136 130 129 125 121 117 110 101 96 93 87 78 71 69 68 68 66
269 301 316 331 345 352 351 351 2 17 38 74 107 122 125 109 67 78 88 76 64 74 69 58 55 58 55 50 51 55 55 54 57 61 65 68 70 71 72 72 70 69 70 71 73 73 74 74 76 77 78 80 82 84 85 85 86 91 94 93 90 87 86 87 94 108 120 123 121 122 124 123 121 119 111 101 97 93 84 72 60 52 52 57 56
259 296 310 318 336 350 353 349 355 17 36 63 105 134 146 145 112 103 113 120 101 85 71 61 62 67 65 60 59 60 61 63 65 67 70 73 73 73 73 72 70 69 70 73 76 78 76 75 76 78 79 80 80 79 80 83 88 95 98 97 95 96 99 102 105 108 110 111 113 117 119 119 118 113 104 96 91 80 65 56 40 20 25 40 46
Height
1511 1515 1518 1521 1523 1526 1528 1531 1532 1534 1535 1537 1538 1540 1541 1542 1543 1544 1544 1545 1545 1546 1546 1547 1547 1548 1548 1549 1549 1550 1550 1551 1551 1552 1553 1554 1555 1556 1557 1558 1558 1559 1560 1561 1562 1563 1565 1566 1568 1569 1571 1572 1574 1575 1577 1578 1579 1580 1581 1582 1583 1584 1585 1585 1585 1586 1586 1586 1587 1587 1588 1588 1589 1589 1589 1590 1590 1590 1591 1591 1591 1591 1591 1591 1590
1510 1513 1516 1519 1522 1525 1527 1530 1532 1533 1535 1536 1537 1539 1540 1542 1542 1543 1544 1544 1544 1545 1545 1546 1547 1547 1548 1549 1549 1550 1550 1551 1551 1552 1553 1554 1555 1556 1557 1558 1558 1559 1560 1561 1563 1564 1565 1566 1568 1569 1571 1572 1573 1575 1576 1578 1579 1580 1581 1582 1583 1584 1584 1585 1586 1586 1586 1586 1587 1587 1587 1588 1588 1589 1589 1590 1590 1590 1591 1591 1591 1591 1591 1590 1590
1509 1511 1514 1517 1520 1523 1526 1528 1530 1532 1534 1535 1537 1538 1540 1541 1542 1543 1543 1544 1544 1544 1545 1545 1546 1547 1548 1548 1549 1550 1550 1551 1551 1552 1553 1553 1554 1556 1557 1558 1559 1559 1560 1561 1563 1564 1565 1566 1568 1569 1571 1572 1573 1574 1576 1577 1578 1579 1580 1581 1582 1583 1584 1584 1585 1586 1586 1587 1587 1587 1587 1588 1588 1589 1589 1589 1590 1590 1590 1590 1590 1590 1590 1589 1589
1508 1510 1512 1516 1519 1522 1525 1527 1529 1531 1533 1535 1536 1538 1539 1540 1541 1542 1543 1543 1544 1544 1544 1545 1545 1546 1547 1548 1549 1549 1550 1550 1551 1552 1552 1553 1554 1555 1557 1558 1559 1559 1560 1562 1563 1564 1565 1567 1568 1569 1571 1572 1573 1574 1575 1576 1577 1579 1580 1580 1581 1582 1583 1583 1584 1585 1586 1587 1587 1587 1587 1588 1588 1588 1589 1589 1589 1589 1589 1589 1589 1589 1589 1588 1588
1508 1510 1512 1516 1519 1522 1524 1526 1528 1531 1533 1534 1536 1537 1538 1539 1540 1541 1542 1543 1543 1544 1544 1544 1545 1545 1546 1547 1548 1549 1550 1550 1551 1551 1552 1553 1554 1555 1556 1558 1559 1560 1560 1562 1563 1564 1565 1567 1568 1569 1571 1572 1573 1574 1575 1576 1577 1578 1579 1580 1580 1581 1582 1582 1583 1584 1585 1586 1586 1587 1587 1587 1587 1587 1588 1588 1588 1588 1588 1588 1588 1588 1588 1587 1587
1508 1510 1512 1514 1518 1522 1524 1526 1528 1531 1533 1534 1536 1536 1537 1538 1539 1540 1541 1542 1543 1544 1544 1544 1544 1545 1545 1546 1548 1549 1549 1550 1550 1551 1552 1553 1554 1555 1556 1557 1558 1559 1560 1561 1562 1563 1565 1566 1567 1569 1570 1572 1573 1574 1575 1576 1577 1577 1578 1579 1579 1580 1580 1581 1582 1583 1584 1585 1585 1585 1586 1586 1586 1586 1587 1587 1587 1587 1587 1587 1587 1586 1586 1586 1585
1506 1509 1510 1512 1515 1520 1524 1526 1528 1530 1532 1534 1535 1535 1536 1537 1538 1540 1540 1541 1542 1543 1544 1544 1545 1545 1545 1546 1547 1548 1549 1549 1550 1551 1551 1552 1553 1554 1555 1556 1558 1559 1560 1561 1562 1563 1564 1565 1567 1568 1570 1571 1572 1573 1574 1575 1576 1577 1577 1578 1578 1579 1579 1580 1580 1581 1582 1583 1584 1584 1584 1584 1585 1585 1585 1585 1585 1585 1585 1585 1585 1584 1584 1584 1583
1505 1507 1509 1510 1513 1517 1522 1524 1526 1529 1531 1533 1533 1534 1535 1536 1538 1539 1540 1541 1542 1543 1544 1544 1545 1545 1546 1546 1547 1547 1548 1548 1549 1550 1551 1551 1552 1553 1554 1555 1557 1558 1560 1561 1562 1563 1564 1565 1566 1568 1569 1571 1572 1573 1574 1574 1575 1575 1576 1576 1577 1577 1578 1578 1579 1580 1581 1582 1582 1582 1582 1583 1583 1583 1583 1583 1583 1583 1583 1583 1582 1582 1582 1582 1581
1504 1506 1507 1509 1512 1515 1519 1523 1525 1527 1530 1531 1532 1533 1534 1536 1537 1538 1539 1540 1541 1542 1543 1544 1545 1545 1546 1546 1547 1547 1547 1548 1548 1549 1550 1551 1552 1552 1553 1554 1556 1557 1559 1560 1561 1563 1564 1565 1566 1568 1569 1570 1571 1572 1572 1573 1574 1574 1574 1575 1576 1576 1577 1577 1578 1579 1580 1580 1580 1581 1581 1581 1581 1581 1581 1581 1581 1581 1581 1581 1580 1580 1580 1580 1579
1503 1505 1508 1510 1513 1515 1517 1521 1523 1526 1528 1530 1532 1533 1534 1535 1536 1537 1538 1539 1540 1542 1542 1543 1544 1545 1545 1546 1546 1547 1547 1548 1548 1549 1549 1550 1551 1552 1552 1553 1555 1556 1558 1559 1561 1562 1563 1565 1566 1567 1568 1569 1570 1570 1571 1572 1572 1573 1573 1574 1574 1575 1576 1576 1577 1578 1578 1578 1579 1579 1579 1579 1579 1579 1579 1579 1579 1579 1579 1579 1578 1578 1578 1577 1577
1504 1507 1509 1512 1514 1515 1517 1520 1523 1525 1528 1530 1531 1532 1534 1535 1536 1537 1538 1539 1540 1541 1542 1542 1543 1544 1545 1545 1546 1547 1547 1548 1548 1549 1549 1550 1550 1551 1552 1553 1554 1555 1557 1558 1559 1561 1562 1564 1565 1566 1567 1568 1568 1569 1570 1570 1571 1571 1572 1572 1573 1573 1574 1574 1575 1575 1575 1576 1576 1577 1577 1577 1577 1578 1578 1578 1578 1577 1577 1577 1576 1575 1575 1574 1574
1504 1507 1509 1511 1513 1514 1516 1520 1523 1526 1528 1530 1531 1532 1533 1534 1535 1536 1537 1538 1539 1540 1541 1542 1542 1543 1544 1544 1545 1546 1546 1547 1547 1548 1548 1549 1550 1550 1551 1552 1553 1555 1556 1557 1558 1560 1561 1562 1563 1565 1566 1566 1567 1567 1568 1569 1569 1570 1570 1571 1571 1572 1572 1572 1573 1573 1573 1574 1574 1575 1575 1575 1575 1576 1576 1576 1576 1575 1575 1574 1574 1573 1572 1572 1571
1505 1507 1509 1510 1511 1513 1515 1518 1521 1524 1527 1528 1529 1530 1532 1533 1534 1535 1537 1538 1538 1539 1540 1541 1541 1542 1543 1543 1544 1544 1545 1545 1546 1546 1547 1548 1548 1549 1550 1551 1552 1553 1554 1556 1557 1558 1559 1560 1561 1562 1563 1564 1565 1566 1566 1567 1567 1568 1568 1568 1569 1569 1570 1570 1570 1571 1571 1571 1572 1572 1573 1573 1573 1573 1574 1573 1573 1572 1572 1572 1571 1571 1570 1570 1569
1505 1506 1508 1509 1511 1513 1515 1518 1520 1523 1525 1526 1527 1529 1530 1532 1533 1535 1536 1537 1538 1539 1539 1540 1541 1541 1542 1542 1542 1542 1543 1543 1544 1545 1545 1546 1547 1548 1548 1549 1550 1551 1552 1554 1555 1556 1557 1558 1559 1560 1561 1562 1562 1563 1564 1564 1564 1565 1565 1566 1566 1566 1567 1567 1568 1568 1569 1569 1569 1570 1570 1570 1570 1571 1571 1570 1570 1570 1569 1569 1569 1568 1568 1567 1567
1507 1508 1509 1511 1513 1515 1516 1519 1521 1523 1524 1524 1526 1527 1529 1531 1533 1534 1536 1537 1538 1539 1539 1539 1540 1540 1541 1541 1541 1541 1541 1542 1543 1543 1544 1545 1546 1546 1547 1547 1548 1549 1550 1551 1552 1553 1554 1555 1556 1557 1558 1559 1560 1560 1561 1562 1562 1562 1562 1562 1563 1563 1563 1564 1565 1565 1566 1566 1566 1567 1567 1567 1567 1567 1567 1567 1566 1566 1566 1566 1566 1565 1565 1564 1564
1510 1511 1511 1514 1516 1517 1518 1520 1521 1522 1523 1524 1525 1527 1528 1530 1532 1534 1536 1537 1537 1538 1538 1539 1539 1539 1540 1540 1539 1539 1540 1540 1541 1542 1543 1543 1544 1545 1545 1546 1546 1547 1548 1549 1549 1550 1551 1552 1553 1554 1555 1556 1557 1558 1558 1559 1559 1559 1559 1560 1560 1560 1561 1561 1561 1562 1563 1563 1563 1563 1563 1564 1564 1564 1564 1563 1562 1562 1563 1562 1562 1562 1562 1561 1561
1513 1515 1515 1517 1519 1520 1521 1521 1522 1522 1524 1526 1527 1528 1529 1531 1532 1534 1535 1536 1536 1537 1537 1538 1538 1538 1539 1539 1539 1539 1539 1539 1540 1540 1541 1542 1542 1543 1543 1544 1545 1545 1546 1547 1547 1548 1548 1549 1549 1550 1551 1552 1554 1555 1555 1555 1555 1556 1556 1557 1557 1558 1558 1558 1558 1559 1560 1560 1560 1560 1560 1560 1560 1560 1560 1560 1559 1559 1559 1559 1559 1559 1559 1559 1559
1518 1519 1520 1521 1522 1522 1523 1523 1523 1524 1526 1527 1528 1529 1530 1531 1532 1533 1534 1534 1535 1536 1536 1537 1537 1538 1538 1538 1538 1538 1538 1538 1539 1539 1539 1540 1541 1541 1542 1542 1543 1543 1544 1545 1545 1546 1546 1546 1547 1547 1548 1549 1550 1551 1551 1551 1551 1552 1553 1553 1553 1554 1554 1554 1554 1555 1556 1556 1557 1557 1557 1557 1556 1556 1556 1556 1555 1555 1556 1556 1556 1557 1557 1558 1557
1521 1523 1523 1524 1524 1524 1524 1525 1525 1526 1528 1528 1528 1529 1529 1530 1531 1532 1532 1533 1534 1534 1535 1535 1536 1536 1537 1537 1538 1538 1537 1537 1537 1537 1538 1538 1539 1539 1539 1540 1540 1541 1541 1542 1542 1543 1543 1543 1544 1544 1545 1546 1547 1547 1547 1546 1546 1547 1549 1549 1548 1549 1550 1550 1550 1551 1552 1552 1552 1553 1553 1553 1553 1552 1552 1552 1552 1552 1552 1553 1554 1554 1555 1555 1555
1523 1524 1524 1524 1525 1526 1526 1527 1527 1528 1529 1530 1530 1531 1531 1531 1532 1532 1532 1532 1533 1533 1534 1534 1535 1535 1536 1536 1537 1537 1537 1536 1536 1536 1536 1536 1536 1536 1536 1537 1537 1537 1538 1538 1539 1539 1539 1540 1541 1542 1542 1542 1543 1543 1542 1542 1541 1542 1543 1544 1543 1544 1546 1546 1546 1547 1547 1547 1548 1548 1549 1549 1549 1548 1548 1549 1549 1549 1549 1550 1551 1552 1552 1552 1552
1525 1525 1525 1525 1526 1526 1526 1527 1527 1528 1529 1530 1530 1531 1531 1532 1533 1533 1533 1533 1533 1533 1533 1534 1534 1535 1536 1536 1536 1536 1536 1536 1535 1535 1535 1534 1534 1534 1534 1534 1534 1534 1535 1535 1535 1535 1536 1536 1537 1538 1538 1538 1539 1539 1538 1538 1537 1537 1537 1539 1539 1540 1542 1542 1542 1542 1543 1543 1544 1545 1545 1545 1545 1545 1545 1545 1546 1546 1547 1548 1549 1549 1549 1549 1549
1525 1526 1526 1526 1526 1526 1526 1527 1527 1527 1528 1528 1529 1530 1530 1531 1532 1532 1532 1531 1531 1532 1532 1532 1533 1534 1535 1535 1535 1535 1534 1534 1534 1534 1533 1533 1533 1532 1532 1532 1532 1531 1532 1532 1533 1532 1533 1533 1534 1534 1535 1534 1535 1535 1535 1534 1534 1533 1533 1534 1536 1537 1537 1537 1538 1539 1539 1540 1540 1540 1541 1541 1542 1542 1542 1542 1543 1543 1544 1545 1546 1546 1546 1546 1546
1526 1526 1526 1525 1526 1526 1526 1526 1526 1526 1527 1527 1528 1528 1529 1529 1529 1530 1530 1529 1529 1529 1530 1530 1531 1531 1532 1532 1532 1532 1532 1532 1532 1532 1531 1531 1530 1530 1529 1529 1529 1528 1528 1528 1529 1529 1529 1529 1529 1530 1530 1530 1530 1531 1531 1530 1530 1529 1529 1530 1532 1532 1532 1533 1534 1535 1535 1536 1536 1536 1537 1537 1537 1538 1539 1539 1540 1541 1542 1543 1543 1543 1543 1543 1543
1526 1526 1525 1525 1525 1525 1525 1525 1525 1525 1525 1525 1525 1526 1526 1527 1527 1527 1527 1527 1527 1527 1527 1527 1528 1528 1529 1529 1529 1529 1528 1528 1528 1528 1528 1528 1527 1527 1526 1525 1525 1525 1524 1524 1524 1524 1524 1524 1525 1525 1525 1525 1526 1526 1526 1525 1525 1525 1525 1526 1526 1527 1527 1528 1529 1530 1530 1530 1531 1531 1532 1532 1533 1534 1535 1536 1537 1539 1539 1540 1540 1540 1541 1541 1541
1524 1524 1524 1524 1524 1524 1525 1524 1524 1524 1524 1523 1523 1523 1523 1523 1524 1524 1524 1524 1524 1524 1524 1525 1525 1525 1525 1525 1525 1525 1524 1524 1524 1524 1524 1524 1524 1523 1523 1522 1521 1520 1520 1520 1519 1519 1518 1519 1519 1519 1520 1520 1520 1520 1520 1520 1520 1520 1521 1521 1521 1521 1522 1523 1524 1524 1524 1525 1526 1526 1527 1528 1530 1531 1532 1534 1535 1536 1537 1538 1538 1538 1538 1538 1538
1524 1524 1524 1523 1523 1523 1523 1523 1523 1523 1522 1522 1522 1521 1521 1521 1521 1521 1521 1521 1521 1521 1521 1522 1522 1522 1521 1521 1521 1521 1521 1520 1520 1520 1520 1520 1520 1520 1519 1519 1518 1517 1516 1515 1515 1514 1513 1513 1513 1513 1514 1514 1515 1514 1514 1515 1515 1515 1516 1516 1516 1516 1516 1517 1518 1519 1520 1520 1521 1522 1524 1525 1527 1528 1530 1531 1533 1534 1535 1536 1536 1536 1536 1536 1536
1524 1524 1524 1523 1523 1523 1522 1522 1521 1521 1521 1520 1520 1520 1519 1519 1519 1519 1519 1519 1519 1519 1519 1519 1518 1518 1517 1517 1517 1516 1516 1516 1516 1516 1516 1515 1515 1515 1514 1514 1514 1513 1513 1512 1511 1510 1509 1509 1509 1508 1508 1509 1509 1509 1509 1509 1509 1509 1510 1510 1510 1511 1512 1513 1513 1514 1515 1516 1517 1518 1520 1521 1523 1525 1526 1528 1530 1531 1533 1534 1534 1534 1534 1534 1533
1525 1524 1524 1523 1523 1522 1522 1521 1520 1520 1519 1519 1519 1518 1517 1517 1517 1517 1517 1517 1517 1516 1516 1516 1515 1514 1514 1513 1513 1512 1512 1512 1512 1512 1511 1511 1510 1510 1510 1510 1509 1509 1509 1508 1507 1506 1505 1504 1504 1504 1503 1503 1503 1504 1504 1504 1504 1504 1505 1505 1506 1506 1507 1508 1509 1510 1511 1512 1512 1513 1515 1518 1520 1522 1524 1526 1527 1529 1531 1532 1532 1532 1531 1531 1531
1525 1524 1524 1523 1523 1522 1521 1520 1519 1519 1518 1518 1517 1516 1515 1515 1515 1515 1514 1514 1514 1513 1513 1512 1512 1511 1510 1510 1509 1509 1509 1509 1509 1509 1508 1507 1507 1506 1506 1506 1505 1505 1504 1504 1502 1501 1501 1500 1500 1500 1499 1499 1499 1499 1499 1499 1499 1499 1500 1500 1501 1502 1502 1503 1504 1505 1506 1507 1508 1509 1511 1514 1518 1521 1523 1525 1526 1527 1528 1530 1530 1529 1529 1529 1529
1526 1525 1524 1523 1523 1522 1521 1519 1519 1518 1517 1516 1516 1516 1515 1514 1513 1513 1513 1512 1512 1511 1510 1510 1509 1509 1508 1508 1507 1506 1506 1506 1506 1506 1505 1504 1504 1503 1503 1502 1501 1501 1501 1500 1498 1497 1497 1496 1496 1496 1496 1496 1496 1495 1495 1495 1495 1495 1495 1496 1496 1497 1498 1499 1500 1501 1502 1503 1504 1506 1508 1511 1515 1518 1521 1523 1524 1525 1526 1527 1527 1527 1527 1527 1527
1526 1525 1524 1523 1522 1521 1520 1519 1518 1517 1516 1515 1515 1515 1515 1514 1513 1512 1512 1511 1511 1510 1509 1509 1508 1507 1507 1506 1506 1505 1505 1504 1504 1503 1502 1501 1501 1500 1499 1499 1498 1498 1497 1496 1495 1494 1494 1493 1493 1493 1493 1493 1493 1492 1492 1492 1492 1492 1492 1493 1493 1494 1494 1495 1496 1497 1498 1499 1501 1503 1506 1508 1512 1515 1518 1520 1522 1523 1524 1525 1525 1524 1524 1524 1525
1526 1526 1525 1524 1522 1521 1520 1519 1518 1517 1516 1515 1514 1514 1514 1514 1513 1513 1512 1511 1510 1510 1509 1508 1508 1507 1507 1505 1505 1504 1504 1503 1502 1501 1500 1499 1498 1497 1497 1496 1495 1495 1494 1493 1492 1491 1491 1491 1490 1490 1490 1490 1489 1489 1488 1488 1488 1489 1489 1490 1491 1491 1491 1492 1492 1493 1494 1496 1498 1501 1503 1506 1509 1512 1515 1518 1520 1521 1522 1522 1522 1522 1522 1522 1522
1527 1526 1525 1524 1523 1521 1520 1519 1518 1516 1515 1515 1514 1513 1513 1513 1513 1513 1512 1512 1511 1510 1510 1509 1508 1507 1506 1505 1504 1503 1503 1502 1501 1500 1499 1497 1496 1495 1494 1494 1493 1492 1491 1490 1489 1489 1489 1488 1487 1487 1487 1487 1486 1486 1485 1485 1485 1486 1487 1487 1488 1489 1489 1489 1490 1490 1491 1493 1496 1499 1501 1504 1507 1510 1513 1516 1518 1519 1520 1520 1520 1520 1519 1519 1520
1526 1525 1524 1523 1522 1521 1519 1518 1517 1515 1515 1514 1513 1513 1513 1512 1512 1512 1511 1511 1511 1510 1510 1509 1507 1506 1505 1504 1503 1502 1501 1500 1499 1498 1497 1496 1494 1493 1492 1492 1491 1490 1489 1488 1487 1487 1486 1485 1485 1485 1485 1484 1484 1484 1483 1483 1483 1484 1484 1485 1485 1486 1486 1487 1488 1489 1491 1493 1496 1498 1501 1503 1506 1509 1511 1513 1515 1517 1518 1518 1518 1518 1517 1517 1518
1525 1524 1523 1522 1521 1520 1519 1517 1516 1515 1514 1513 1513 1513 1512 1512 1511 1511 1510 1510 1510 1509 1509 1508 1506 1505 1504 1503 1502 1501 1500 1499 1498 1497 1496 1494 1493 1492 1491 1490 1489 1488 1487 1486 1485 1484 1483 1483 1482 1482 1482 1482 1482 1482 1482 1482 1482 1482 1482 1483 1484 1484 1485 1486 1489 1491 1493 1495 1498 1501 1503 1505 1506 1508 1510 1511 1513 1515 1516 1516 1516 1516 1516 1516 1516
1525 1524 1523 1522 1521 1520 1518 1517 1515 1514 1513 1513 1513 1512 1512 1512 1512 1511 1510 1510 1509 1508 1507 1506 1505 1504 1503 1502 1501 1500 1499 1498 1497 1496 1495 1494 1493 1491 1490 1488 1487 1486 1485 1484 1483 1482 1481 1480 1479 1479 1479 1479 1479 1480 1480 1480 1480 1481 1481 1482 1483 1484 1485 1486 1489 1491 1493 1496 1499 1502 1504 1506 1507 1509 1510 1510 1511 1513 1514 1515 1515 1515 1514 1514 1514
1525 1524 1523 1522 1521 1520 1518 1516 1515 1514 1514 1513 1513 1513 1513 1512 1512 1511 1510 1509 1508 1507 1506 1505 1504 1504 1503 1502 1501 1500 1499 1497 1496 1495 1495 1494 1493 1491 1489 1488 1487 1485 1484 1482 1481 1480 1479 1478 1478 1477 1477 1477 1477 1477 1478 1478 1479 1480 1481 1482 1483 1484 1485 1486 1488 1490 1493 1496 1498 1501 1503 1506 1507 1508 1508 1509 1510 1511 1513 1513 1514 1514 1513 1513 1512
1524 1524 1523 1522 1521 1519 1518 1516 1515 1515 1514 1513 1513 1513 1513 1512 1512 1511 1510 1509 1508 1507 1506 1505 1503 1502 1502 1501 1500 1499 1498 1497 1496 1495 1494 1493 1492 1491 1489 1488 1487 1485 1483 1482 1480 1479 1479 1478 1477 1476 1475 1475 1475 1476 1476 1477 1478 1479 1480 1482 1483 1484 1485 1487 1490 1492 1494 1496 1498 1500 1502 1504 1506 1506 1507 1508 1509 1511 1512 1512 1512 1513 1512 1511 1510
1524 1523 1522 1521 1520 1519 1517 1516 1515 1515 1514 1514 1513 1513 1513 1513 1512 1511 1510 1509 1508 1507 1505 1504 1503 1502 1501 1500 1499 1498 1497 1496 1495 1495 1493 1493 1492 1490 1489 1488 1487 1485 1483 1481 1480 1479 1478 1477 1476 1475 1474 1474 1473 1474 1474 1476 1477 1478 1480 1481 1483 1485 1486 1488 1490 1492 1494 1496 1497 1499 1501 1503 1504 1505 1506 1508 1509 1510 1511 1511 1511 1511 1510 1510 1510
1523 1522 1522 1521 1520 1518 1517 1516 1516 1515 1515 1514 1514 1514 1513 1513 1512 1511 1510 1509 1508 1506 1505 1504 1503 1501 1500 1499 1498 1497 1496 1495 1494 1493 1493 1492 1491 1490 1489 1488 1487 1485 1483 1482 1480 1478 1477 1475 1474 1473 1472 1472 1472 1472 1473 1474 1475 1477 1479 1482 1484 1486 1487 1489 1491 1493 1494 1496 1497 1499 1500 1502 1504 1505 1507 1508 1509 1509 1510 1510 1510 1509 1509 1510 1511
1523 1522 1521 1520 1519 1518 1517 1516 1516 1515 1515 1514 1514 1514 1514 1513 1512 1511 1510 1509 1508 1506 1505 1504 1502 1501 1500 1499 1497 1496 1495 1495 1494 1493 1493 1492 1491 1490 1489 1488 1487 1486 1484 1482 1480 1478 1476 1474 1473 1471 1470 1470 1471 1471 1472 1473 1475 1477 1481 1484 1486 1487 1489 1490 1492 1493 1495 1496 1498 1499 1500 1502 1504 1505 1507 1508 1509 1509 1509 1509 1508 1509 1510 1511 1511
1522 1521 1521 1520 1519 1518 1517 1516 1516 1515 1515 1515 1515 1514 1514 1514 1513 1512 1511 1509 1508 1507 1505 1504 1503 1501 1500 1499 1497 1496 1495 1494 1494 1493 1493 1492 1491 1490 1490 1489 1487 1486 1484 1482 1480 1478 1476 1474 1473 1471 1470 1470 1470 1471 1472 1474 1476 1480 1483 1485 1487 1488 1490 1491 1492 1494 1496 1498 1499 1500 1501 1502 1504 1506 1507 1508 1508 1509 1508 1508 1508 1509 1510 1511 1511
1521 1521 1520 1519 1518 1517 1516 1516 1515 1515 1515 1515 1515 1514 1514 1514 1513 1512 1511 1510 1508 1507 1506 1504 1503 1502 1501 1499 1498 1496 1495 1495 1494 1493 1493 1492 1492 1491 1490 1489 1487 1486 1485 1483 1481 1479 1477 1476 1474 1473 1472 1471 1472 1473 1475 1477 1480 1483 1486 1488 1489 1490 1491 1492 1494 1496 1498 1500 1501 1502 1502 1503 1505 1506 1507 1508 1508 1508 1508 1509 1509 1510 1510 1510 1510
1520 1520 1519 1518 1517 1516 1515 1515 1514 1514 1514 1514 1514 1514 1514 1513 1513 1512 1511 1510 1509 1507 1506 1505 1504 1502 1501 1500 1498 1497 1496 1495 1494 1494 1493 1493 1492 1491 1490 1489 1488 1487 1486 1484 1483 1481 1480 1479 1477 1476 1476 1475 1476 1478 1480 1483 1485 1487 1489 1490 1491 1492 1493 1494 1496 1498 1500 1501 1502 1503 1503 1504 1505 1506 1507 1507 1508 1508 1508 1509 1509 1509 1509 1509 1510
1519 1519 1519 1518 1517 1515 1514 1514 1513 1513 1513 1513 1513 1513 1513 1513 1512 1512 1511 1510 1509 1508 1506 1505 1504 1503 1502 1501 1499 1498 1497 1496 1495 1495 1494 1493 1493 1492 1491 1490 1489 1488 1487 1486 1485 1484 1483 1482 1481 1481 1481 1481 1482 1483 1485 1487 1488 1490 1491 1492 1493 1494 1495 1496 1498 1499 1501 1502 1503 1503 1504 1505 1506 1506 1507 1507 1508 1508 1508 1508 1509 1509 1509 1509 1510
1519 1519 1518 1517 1516 1515 1513 1512 1512 1511 1511 1511 1511 1512 1512 1512 1512 1512 1511 1510 1509 1508 1507 1506 1505 1504 1503 1502 1500 1499 1498 1497 1496 1496 1495 1494 1494 1493 1492 1491 1490 1490 1489 1488 1487 1486 1486 1486 1486 1486 1486 1486 1486 1487 1488 1489 1491 1492 1493 1494 1495 1496 1497 1498 1499 1500 1501 1502 1503 1504 1504 1505 1506 1507 1507 1507 1508 1508 1509 1509 1509 1509 1509 1509 1510
1518 1518 1517 1516 1515 1514 1513 1512 1511 1510 1509 1509 1510 1510 1511 1511 1511 1511 1510 1510 1509 1508 1507 1506 1505 1505 1504 1503 1502 1501 1500 1499 1498 1497 1496 1496 1495 1494 1493 1493 1492 1492 1491 1490 1490 1490 1490 1489 1489 1490 1489 1489 1489 1490 1491 1492 1493 1494 1495 1496 1496 1497 1498 1499 1500 1501 1502 1503 1504 1504 1505 1506 1506 1507 1507 1508 1508 1509 1509 1509 1509 1508 1508 1509 1510
1517 1517 1517 1516 1515 1514 1513 1512 1511 1509 1508 1508 1509 1510 1510 1511 1511 1511 1510 1509 1509 1508 1508 1507 1506 1506 1505 1504 1503 1502 1501 1500 1500 1499 1498 1497 1497 1496 1496 1496 1495 1495 1494 1494 1493 1493 1493 1493 1493 1493 1493 1493 1493 1493 1494 1495 1495 1496 1497 1497 1498 1498 1499 1500 1501 1502 1503 1503 1504 1505 1506 1506 1507 1507 1508 1508 1508 1509 1509 1509 1508 1508 1509 1510 1510
1516 1516 1516 1515 1514 1514 1513 1512 1511 1510 1509 1508 1509 1509 1510 1510 1510 1510 1510 1509 1509 1509 1508 1507 1507 1506 1506 1505 1505 1504 1503 1502 1502 1501 1500 1500 1499 1499 1498 1498 1497 1497 1497 1496 1496 1496 1495 1495 1495 1495 1495 1495 1496 1496 1496 1497 1497 1497 1498 1498 1499 1500 1501 1501 1502 1503 1503 1504 1505 1506 1506 1507 1507 1508 1508 1508 1509 1509 1510 1509 1509 1509 1510 1510 1510
1515 1515 1515 1515 1514 1513 1512 1512 1511 1510 1509 1509 1509 1509 1510 1510 1510 1510 1510 1510 1509 1509 1508 1508 1508 1507 1507 1506 1506 1505 1505 1504 1503 1503 1502 1502 1501 1501 1500 1500 1500 1499 1499 1498 1498 1498 1498 1498 1498 1498 1498 1498 1498 1498 1498 1498 1498 1499 1499 1500 1500 1501 1502 1502 1503 1504 1504 1505 1505 1506 1507 1508 1508 1509 1509 1510 1510 1510 1510 1510 1510 1510 1510 1510 1510
1514 1514 1514 1514 1514 1513 1512 1511 1511 1510 1509 1509 1509 1509 1510 1510 1510 1510 1510 1510 1510 1509 1509 1509 1508 1508 1508 1507 1507 1506 1506 1505 1505 1504 1504 1503 1503 1502 1502 1502 1501 1501 1501 1500 1500 1500 1500 1500 1500 1500 1500 1500 1500 1500 1500 1500 1500 1500 1500 1501 1501 1502 1503 1504 1505 1505 1506 1506 1507 1507 1508 1509 1509 1510 1510 1510 1510 1510 1510 1510 1510 1511 1511 1511 1511